LEOJH KSYR-KSYR

Flight info

Callsign LEOJH
Flight time 0h 1m
Altitude
Route
Aircraft C172/L-VGD/C

Departure

Time 2026-04-24 03:37
Airport Syracuse Hancock International Airport (KSYR)

Arrival

Time 2026-04-24 03:39
Airport Syracuse Hancock International Airport (KSYR)
Time Latitude Longitude Altitude Speed Heading
2026-04-24 03:33 43.10665 -76.11840 423 ft 0 kts 179°
2026-04-24 03:33 43.10655 -76.11851 417 ft 6 kts 271°
2026-04-24 03:33 43.10707 -76.11862 422 ft 14 kts 25°
2026-04-24 03:34 43.10723 -76.11907 422 ft 20 kts 262°
2026-04-24 03:34 43.10698 -76.12052 420 ft 12 kts 238°
2026-04-24 03:34 43.10675 -76.12192 425 ft 18 kts 268°
2026-04-24 03:34 43.10670 -76.12350 421 ft 15 kts 268°
2026-04-24 03:35 43.10665 -76.12453 422 ft 10 kts 269°
2026-04-24 03:35 43.10671 -76.12515 419 ft 12 kts 293°
2026-04-24 03:35 43.10745 -76.12547 428 ft 0 kts 357°
2026-04-24 03:36 43.10747 -76.12548 428 ft 0 kts 358°
2026-04-24 03:36 43.10774 -76.12548 426 ft 12 kts
2026-04-24 03:36 43.10828 -76.12394 428 ft 32 kts 88°
2026-04-24 03:36 43.10847 -76.11864 446 ft 72 kts 84°
2026-04-24 03:37 43.10873 -76.11108 581 ft 86 kts 90°
2026-04-24 03:37 43.10890 -76.10222 717 ft 98 kts 88°
2026-04-24 03:37 43.10947 -76.09268 910 ft 99 kts 73°
2026-04-24 03:37 43.11441 -76.08924 1156 ft 96 kts 329°
2026-04-24 03:38 43.11507 -76.09961 1002 ft 126 kts 263°
2026-04-24 03:38 43.11370 -76.11128 1025 ft 126 kts 261°
2026-04-24 03:38 43.11233 -76.12329 858 ft 117 kts 264°
2026-04-24 03:38 43.11105 -76.13314 763 ft 90 kts 232°
2026-04-24 03:39 43.10747 -76.13224 443 ft 17 kts 95°